Date String (YYYY-MM-DD hh:mm:ss) UTC,Instrument flags,Ambient pressure (hPa),Sample flow (lpm),Bypass flow (lpm),Sample temperature (°C),Ambient temperature (°C),ASC tube jacket temperature (°C),LED temperature (°C),Box temperature (°C),Sample RH (%),Span deviation,Mass concentration (μg/m³),Mass concentration (μg/m³),Mass concentration (μg/m³)
DateTimeUTC,F1_M11,P_M11,Q1_M11,Q2_M11,T1_M11,T2_M11,T3_M11,T4_M11,T5_M11,U1_M11,ZSPAN_M11,X0_M11,X2_M11,X1_M11
2023-05-18 15:00:00,,0831.8,4.99,0.00,29.6,28.1,00.0,37.9,31.2,28.3,0000.0,0010.70,0006.11,0005.42
2023-05-18 15:01:00,,0832.0,5.00,0.00,29.6,28.1,00.0,37.9,31.2,28.0,0000.0,0010.71,0006.11,0005.42
2023-05-18 15:02:00,,0832.3,5.01,0.00,29.6,28.1,00.0,37.9,31.2,28.6,0000.0,0010.84,0006.16,0005.43
2023-05-18 15:03:00,,0832.2,5.00,0.00,29.6,28.1,00.0,37.9,31.2,28.5,0000.0,0010.98,0006.22,0005.44
2023-05-18 15:04:00,,0832.3,5.01,0.00,29.6,28.1,00.0,37.9,31.2,28.5,0002.1,0010.75,0006.24,0005.45
2023-05-18 15:05:00,,0832.0,4.99,0.00,29.6,28.1,00.0,37.9,31.3,28.5,0002.9,0010.84,0006.28,0005.45
2023-05-18 15:06:00,,0832.0,5.00,0.00,29.6,28.1,00.0,37.9,31.3,29.0,0003.6,0010.60,0006.25,0005.46
2023-05-18 15:07:00,,0831.8,5.01,0.00,29.7,28.1,00.0,38.0,31.3,28.7,0003.7,0010.33,0006.26,0005.46
2023-05-18 15:08:00,,0831.8,5.00,0.00,29.7,28.2,00.0,38.0,31.3,28.7,0003.7,0009.99,0006.25,0005.46
2023-05-18 15:09:00,,0831.8,5.00,0.00,29.7,28.2,00.0,38.0,31.3,28.3,0003.5,0009.87,0006.26,0005.49
2023-05-18 15:10:00,,0831.8,4.99,0.00,29.7,28.2,00.0,38.0,31.3,28.2,0003.6,0009.98,0006.30,0005.51
2023-05-18 15:11:00,,0831.8,5.01,0.00,29.7,28.2,00.0,38.0,31.3,28.4,0003.8,0010.59,0006.34,0005.53
2023-05-18 15:12:00,,0831.8,4.99,0.00,29.7,28.2,00.0,38.0,31.3,28.8,0003.9,0010.70,0006.39,0005.54
2023-05-18 15:13:00,,0831.8,4.99,0.00,29.7,28.2,00.0,38.0,31.3,28.7,0004.0,0010.64,0006.37,0005.54
2023-05-18 15:14:00,,0831.7,5.01,0.00,29.7,28.2,00.0,38.0,31.3,28.1,0004.1,0010.57,0006.36,0005.55
2023-05-18 15:15:00,,0831.7,5.00,0.00,29.7,28.2,00.0,38.0,31.3,28.1,0003.9,0010.73,0006.40,0005.56
2023-05-18 15:16:00,,0831.7,5.01,0.00,29.7,28.2,00.0,38.0,31.3,27.8,0003.6,0010.71,0006.41,0005.58
2023-05-18 15:17:00,,0831.7,5.00,0.00,29.7,28.2,00.0,38.0,31.3,27.9,0003.2,0010.77,0006.44,0005.59
2023-05-18 15:18:00,,0831.7,4.99,0.00,29.7,28.2,00.0,38.1,31.4,28.1,0003.0,0010.77,0006.45,0005.61
2023-05-18 15:19:00,,0831.6,4.99,0.00,29.8,28.3,00.0,38.1,31.4,28.2,0002.5,0010.83,0006.48,0005.64
2023-05-18 15:20:00,,0831.6,5.01,0.00,29.8,28.3,00.0,38.1,31.4,28.9,0000.6,0010.92,0006.52,0005.64
2023-05-18 15:21:00,,0831.6,5.01,0.00,29.8,28.3,00.0,38.1,31.4,28.1,0000.0,0010.93,0006.53,0005.65
2023-05-18 15:22:00,,0831.6,4.99,0.00,29.8,28.3,00.0,38.1,31.4,28.0,0000.0,0010.41,0006.54,0005.68
2023-05-18 15:23:00,,0831.6,4.99,0.00,29.8,28.3,00.0,38.1,31.4,27.8,0000.2,0010.26,0006.55,0005.70
2023-05-18 15:24:00,,0831.6,5.00,0.00,29.8,28.3,00.0,38.1,31.4,28.2,0000.2,0010.53,0006.54,0005.72
2023-05-18 15:25:00,,0831.6,5.01,0.00,29.8,28.3,00.0,38.1,31.4,29.2,0000.0,0010.65,0006.57,0005.75
2023-05-18 15:26:00,,0831.6,4.99,0.00,29.8,28.3,00.0,38.1,31.4,30.1,0000.7,0010.57,0006.51,0005.75
2023-05-18 15:27:00,,0831.6,4.99,0.00,29.8,28.3,00.0,38.1,31.4,28.9,0002.4,0011.05,0006.50,0005.73
2023-05-18 15:28:00,,0831.5,5.01,0.00,29.8,28.3,00.0,38.1,31.5,28.2,0002.7,0011.46,0006.49,0005.72
2023-05-18 15:29:00,,0831.6,5.00,0.00,29.9,28.4,00.0,38.2,31.5,28.4,0002.2,0011.57,0006.50,0005.70
2023-05-18 15:30:00,,0831.5,4.99,0.00,29.9,28.4,00.0,38.2,31.5,28.6,0001.8,0011.56,0006.48,0005.68
2023-05-18 15:31:00,,0831.5,5.01,0.00,29.9,28.4,00.0,38.2,31.5,28.3,0001.8,0011.51,0006.45,0005.67
2023-05-18 15:32:00,,0831.5,5.01,0.00,29.9,28.4,00.0,38.2,31.5,28.7,0001.6,0011.64,0006.49,0005.68
2023-05-18 15:33:00,,0831.5,4.99,0.00,29.9,28.4,00.0,38.2,31.5,28.4,0000.5,0011.64,0006.48,0005.67
2023-05-18 15:34:00,,0831.5,5.01,0.00,29.9,28.3,00.0,38.2,31.5,28.7,0000.1,0011.62,0006.49,0005.67
2023-05-18 15:35:00,,0831.5,5.01,0.00,29.9,28.3,00.0,38.2,31.5,28.9,0000.9,0011.36,0006.54,0005.68
2023-05-18 15:36:00,,0831.5,4.99,0.00,29.9,28.3,00.0,38.2,31.5,28.5,0000.9,0011.33,0006.53,0005.67
2023-05-18 15:37:00,,0831.5,4.99,0.00,29.9,28.3,00.0,38.2,31.5,28.8,0001.6,0011.17,0006.57,0005.69
2023-05-18 15:38:00,,0831.5,5.01,0.00,29.9,28.3,00.0,38.2,31.5,28.2,0001.7,0010.97,0006.58,0005.72
2023-05-18 15:39:00,,0831.5,4.99,0.00,29.9,28.3,00.0,38.2,31.5,28.9,0001.0,0010.74,0006.59,0005.73
2023-05-18 15:40:00,,0831.5,5.01,0.00,29.9,28.3,00.0,38.2,31.4,28.6,0002.1,0010.65,0006.60,0005.77
2023-05-18 15:41:00,,0831.5,5.00,0.00,29.9,28.3,00.0,38.2,31.4,28.4,0002.8,0011.21,0006.66,0005.81
2023-05-18 15:42:00,,0831.5,5.00,0.00,29.9,28.2,00.0,38.2,31.4,28.5,0003.0,0011.83,0006.71,0005.85
2023-05-18 15:43:00,,0831.5,4.99,0.00,29.9,28.2,00.0,38.2,31.4,28.4,0003.5,0011.93,0006.76,0005.88
2023-05-18 15:44:00,,0831.6,5.00,0.00,29.8,28.2,00.0,38.2,31.4,28.7,0003.8,0011.86,0006.77,0005.90
2023-05-18 15:45:00,,0831.6,5.00,0.00,29.9,28.3,00.0,38.2,31.4,29.2,0003.9,0011.81,0006.75,0005.91
2023-05-18 15:46:00,,0831.6,5.00,0.00,29.9,28.3,00.0,38.2,31.4,28.7,0004.1,0011.84,0006.74,0005.93
2023-05-18 15:47:00,,0831.6,5.01,0.00,29.9,28.3,00.0,38.2,31.4,29.3,0004.1,0011.94,0006.77,0005.94
2023-05-18 15:48:00,,0831.6,5.00,0.00,29.9,28.3,00.0,38.2,31.4,28.7,0004.2,0011.99,0006.80,0005.96
2023-05-18 15:49:00,,0831.6,4.98,0.00,29.9,28.3,00.0,38.2,31.5,29.6,0004.0,0011.83,0006.80,0005.96
2023-05-18 15:50:00,,0831.6,5.01,0.00,29.9,28.3,00.0,38.2,31.5,28.8,0003.8,0011.47,0006.82,0005.99
2023-05-18 15:51:00,,0831.6,4.99,0.00,29.9,28.4,00.0,38.2,31.5,28.3,0004.1,0011.60,0006.84,0005.99
2023-05-18 15:52:00,,0831.6,4.99,0.00,29.9,28.4,00.0,38.3,31.5,28.2,0004.0,0011.39,0006.80,0005.98
2023-05-18 15:53:00,,0831.6,5.00,0.00,29.9,28.4,00.0,38.3,31.5,28.4,0003.8,0010.56,0006.80,0005.96
2023-05-18 15:54:00,,0831.6,5.01,0.00,29.9,28.4,00.0,38.3,31.5,28.5,0003.2,0010.56,0006.77,0005.96
2023-05-18 15:55:00,,0831.6,5.00,0.00,29.9,28.4,00.0,38.3,31.5,28.4,0002.6,0010.81,0006.77,0005.95
2023-05-18 15:56:00,,0831.6,4.99,0.00,29.9,28.4,00.0,38.3,31.5,28.8,0002.6,0010.83,0006.77,0005.94
2023-05-18 15:57:00,,0831.6,5.01,0.00,30.0,28.4,00.0,38.3,31.5,28.4,0002.6,0010.88,0006.78,0005.93
2023-05-18 15:58:00,,0831.6,5.01,0.00,30.0,28.4,00.0,38.3,31.5,28.6,0002.6,0011.28,0006.76,0005.91
2023-05-18 15:59:00,,0831.6,4.99,0.00,30.0,28.5,00.0,38.3,31.6,28.7,0002.6,0011.51,0006.76,0005.89
